Regional Weather Roundup
Issued by NWS Green Bay, WI

Home | Current Version | Previous Version | Graphics & Text | Print | Product List | Glossary Off
Versions: 1 2 3 4 5 6 7 8 9 10 11 12 13 14 15 16 17 18 19 20 21 22 23 24 25 26 27 28 29 30 31 32 33 34 35 36 37 38 39 40 41 42 43 44 45 46 47 48 49 50

000
ASUS43 KGRB 271300
RWRGRB

NORTH-CENTRAL AND NORTHEAST WISCONSIN REGIONAL WEATHER ROUNDUP
NATIONAL WEATHER SERVICE GREEN BAY WI
800 AM CDT SUN MAY 27 2018

WIZ005-009-010>012-018-019-271400-
NORTH CENTRAL WISCONSIN

CITY           SKY/WX    TMP DP  RH WIND       PRES   REMARKS
IRONWOOD       FAIR      64  58  80 CALM      29.85R
MANITOWISH WTR NOT AVBL
ARBOR VITAE    NOT AVBL
EAGLE RIVER    NOT AVBL
LAND O LAKES   NOT AVBL
RHINELANDER    FAIR      74  61  63 SW3       29.86R
PHILLIPS       FAIR      69  61  74 CALM      29.84S
ANTIGO         NOT AVBL
TOMAHAWK       NOT AVBL
MERRILL        FAIR      67  61  82 CALM      29.85S
$$

WIZ013-073-271400-
NORTHEAST WISCONSIN

CITY           SKY/WX    TMP DP  RH WIND       PRES   REMARKS
IRON MOUNTAIN  FAIR      68  61  78 NW3       29.82R
MARINETTE      FAIR      67  61  81 N3        29.82R
$$

WIZ017-030-035>037-045-271400-
CENTRAL WISCONSIN

CITY           SKY/WX    TMP DP  RH WIND       PRES   REMARKS
MEDFORD        NOT AVBL
WAUSAU         NOT AVBL
MOSINEE        MOSUNNY   72  64  78 CALM      29.85S
MARSHFIELD     FAIR      74  67  78 SW3       29.83R
WISC RAPIDS    FAIR      76  64  66 CALM      29.85R
STEVENS POINT  NOT AVBL
WAUPACA        NOT AVBL
SHAWANO        FAIR      73  64  72 CALM      29.82S
CLINTONVILLE   NOT AVBL
WAUTOMA        FAIR      75  66  73 S5        29.84R
$$

WIZ038-039-048-051-271400-
FOX VALLEY

CITY           SKY/WX    TMP DP  RH WIND       PRES   REMARKS
NWS GREEN BAY  FAIR      74  66  76 SW7       29.82R
APPLETON       SUNNY     75  61  60 SW5       29.82R
OSHKOSH        FAIR      78  66  66 VRB5      29.83R
FOND DU LAC    FAIR      78  65  63 SW7       29.84R
$$

WIZ022-050-052-271400-
EAST CENTRAL WISCONSIN

CITY           SKY/WX    TMP DP  RH WIND       PRES   REMARKS
EPHRAIM        NOT AVBL
WASHINGTON ISL NOT AVBL
STURGEON BAY   FAIR      69  61  75 W5        29.83R
MANITOWOC      NOT AVBL
SHEBOYGAN      FAIR      81  65  58 W7        29.83R
$$

LMZ563-521-522-541>543-271400-
LAKESHORE

STATION/POSITION TIME  TEMP    WIND        PRES    VSBY  WAVE
                       AIR SEA DIR/SP/G                  HT/PER
                 (UTC) (F)     (DEG/KT/KT) (MB)    (MI)  (FT/S)
SHEBOYGAN LKSHOR 1200   64     180/  8/  8 1009.4R
KEWAUNEE LKSHORE 1224   67     280/  3/  4 1008.7
NORTHPORT PIER   1240   51     140/  4/  5 1009.5R
N MID LAKE BUOY  1240   44 38  200/ 10/ 12 1009.5R
MENOMINEE LKSHOR 1224   55     360/  4/  5 1009.3
$$




USA.gov is the U.S. government's official web portal to all federal, state and local government web resources and services.